Location: Agendoh
(31.0664°N, 8.9343°W)
Time: 22:13:21
(UTC+00:00)

Lacrosse 5 - Pass Details

Date: 03 July 2022
Orbit: 714 x 724 km, 57.0° (Epoch: 09 March)

Event Time Altitude Azimuth Distance (km) Brightness Sun altitude
Rises 22:59:03 0° 311° (NW) 3,134 6.1 -30.9°
Reaches altitude 10° 23:01:38 10° 302° (WNW) 2,209 5.0 -31.1°
Enters shadow 23:04:29 26° 275° (W) 1,390 3.5 -31.4°
